This is the latest recevied weather packets stored in our database for station/object K1TTC. If no packets are shown the sender has not sent any weather packets the latest 10 day(s).
| Time | Temp. | Humidity | Pressure | Rain* | Wind** | Luminosity | Snow |
|---|---|---|---|---|---|---|---|
| 1788315901 | 17.78° C | 84% | 1021.4 hPa | 0 mm | - | 0 W/m² | - |
| 1788315300 | 17.78° C | 84% | 1021.3 hPa | 0 mm | - | 0 W/m² | - |
| 1788314804 | 17.78° C | 84% | 1021.4 hPa | 0 mm | - | 0 W/m² | - |
| 1788314098 | 17.78° C | 83% | 1021.4 hPa | 0 mm | - | 0 W/m² | - |
| 1788313491 | 17.78° C | 83% | 1021.5 hPa | 0 mm | - | 0 W/m² | - |
| 1788312892 | 17.78° C | 83% | 1021.3 hPa | 0 mm | - | 0 W/m² | - |
| 1788312295 | 17.78° C | 84% | 1021.2 hPa | 0 mm | - | 0 W/m² | - |
| 1788311707 | 17.78° C | 84% | 1021.4 hPa | 0 mm | - | 0 W/m² | - |
| 1788311090 | 17.78° C | 83% | 1021.4 hPa | 0 mm | - | 0 W/m² | - |
| 1788310492 | 17.78° C | 83% | 1021.2 hPa | 0 mm | - | 0 W/m² | - |
| 1788309892 | 17.78° C | 83% | 1020.9 hPa | 0 mm | - | 0 W/m² | - |
| 1788309291 | 17.78° C | 83% | 1021 hPa | 0 mm | - | 0 W/m² | - |
| 1788308691 | 17.78° C | 83% | 1020.9 hPa | 0 mm | - | 0 W/m² | - |
| 1788308091 | 18.33° C | 83% | 1020.7 hPa | 0 mm | - | 0 W/m² | - |
| 1788307491 | 18.33° C | 83% | 1020.6 hPa | 0 mm | - | 0 W/m² | - |
| 1788306892 | 18.33° C | 83% | 1020.5 hPa | 0 mm | - | 0 W/m² | - |
| 1788306293 | 18.33° C | 83% | 1020.5 hPa | 0 mm | - | 0 W/m² | - |
| 1788305691 | 18.33° C | 83% | 1020.6 hPa | 0 mm | - | 0 W/m² | - |
| 1788305091 | 18.33° C | 83% | 1020.6 hPa | 0 mm | - | 0 W/m² | - |
| 1788304490 | 18.33° C | 83% | 1020.6 hPa | 0 mm | - | 0 W/m² | - |
| 1788303888 | 18.33° C | 83% | 1020.6 hPa | 0 mm | - | 5 W/m² | - |
| 1788303286 | 18.33° C | 83% | 1020.7 hPa | 0 mm | - | 11 W/m² | - |
| 1788302775 | 18.33° C | 83% | 1020.5 hPa | 0 mm | - | 12 W/m² | - |
| 1788302082 | 18.33° C | 83% | 1020.5 hPa | 0 mm | - | 7 W/m² | - |
| 1788301480 | 18.33° C | 83% | 1020.5 hPa | 0 mm | - | 11 W/m² | - |
* Rain latest hour (hover to see other rain measurements)
** Current wind speed in m/s (hover to see current wind gust speed)